Time,TemperatureF,DewpointF,PressureIn,WindDirection,WindDirectionDegrees,WindSpeedMPH,WindSpeedGustMPH,Humidity,HourlyPrecipIn,Conditions,Clouds,dailyrainin,SoftwareType,DateUTC
2013-02-17 00:18:00,30.0,11.3,29.78,NNW,333,5.4,15.4,45,0.00,,---,0.00,VWS V12.08,2013-02-17 05:18:00,
2013-02-17 00:38:00,29.8,11.1,29.78,North,11,3.1,13.6,45,0.00,,---,0.00,VWS V12.08,2013-02-17 05:38:00,
2013-02-17 00:58:00,29.5,10.8,29.78,NNW,344,12.3,13.2,45,0.00,,---,0.00,VWS V12.08,2013-02-17 05:58:00,
2013-02-17 01:18:00,28.9,10.3,29.78,NW,308,0.0,20.6,45,0.00,,---,0.00,VWS V12.08,2013-02-17 06:18:00,
2013-02-17 01:38:00,28.8,10.2,29.78,NNE,12,4.0,15.4,45,0.00,,---,0.00,VWS V12.08,2013-02-17 06:38:00,
2013-02-17 01:58:00,28.6,10.0,29.78,North,353,9.6,10.5,45,0.00,,---,0.00,VWS V12.08,2013-02-17 06:58:00,
2013-02-17 02:18:00,28.6,10.0,29.75,WNW,299,0.0,11.0,45,0.00,,---,0.00,VWS V12.08,2013-02-17 07:18:00,
2013-02-17 02:38:00,28.6,10.0,29.75,NNW,336,5.4,10.1,45,0.00,,---,0.00,VWS V12.08,2013-02-17 07:38:00,
2013-02-17 02:58:00,28.6,10.0,29.75,NW,321,3.1,13.2,45,0.00,,---,0.00,VWS V12.08,2013-02-17 07:58:00,
2013-02-17 03:18:00,28.6,10.0,29.75,NNW,335,3.6,8.7,45,0.00,,---,0.00,VWS V12.08,2013-02-17 08:18:00,
2013-02-17 03:38:00,28.2,9.7,29.75,NNW,328,3.1,13.2,45,0.00,,---,0.00,VWS V12.08,2013-02-17 08:38:00,
2013-02-17 03:58:00,27.9,9.3,29.75,WNW,303,8.3,17.0,45,0.00,,---,0.00,VWS V12.08,2013-02-17 08:58:00,
2013-02-17 04:18:00,27.7,9.2,29.75,North,9,2.2,10.1,45,0.00,,---,0.00,VWS V12.08,2013-02-17 09:18:00,
2013-02-17 04:38:00,27.5,9.0,29.75,WNW,298,6.7,10.5,45,0.00,,---,0.00,VWS V12.08,2013-02-17 09:38:00,
2013-02-17 04:58:00,27.0,8.5,29.78,NW,322,7.6,13.2,45,0.00,,---,0.00,VWS V12.08,2013-02-17 09:58:00,
2013-02-17 05:18:00,26.8,8.4,29.78,NW,312,4.0,12.8,45,0.00,,---,0.00,VWS V12.08,2013-02-17 10:18:00,
2013-02-17 05:38:00,26.4,8.6,29.75,NW,306,5.4,9.2,46,0.00,,---,0.00,VWS V12.08,2013-02-17 10:38:00,
2013-02-17 05:58:00,26.1,8.2,29.78,NW,306,2.7,10.5,46,0.00,,---,0.00,VWS V12.08,2013-02-17 10:58:00,
2013-02-17 06:18:00,25.5,7.7,29.78,WNW,282,3.6,10.1,46,0.00,,---,0.00,VWS V12.08,2013-02-17 11:18:00,
2013-02-17 06:38:00,25.2,7.4,29.78,NW,306,7.6,8.7,46,0.00,,---,0.00,VWS V12.08,2013-02-17 11:38:00,
2013-02-17 06:58:00,25.2,7.4,29.78,NNW,344,2.7,11.0,46,0.00,,---,0.00,VWS V12.08,2013-02-17 11:58:00,
2013-02-17 07:18:00,24.6,6.9,29.78,NW,315,12.3,12.8,46,0.00,,---,0.00,VWS V12.08,2013-02-17 12:18:00,
2013-02-17 07:38:00,24.8,7.1,29.78,West,269,2.7,12.3,46,0.00,,---,0.00,VWS V12.08,2013-02-17 12:38:00,
2013-02-17 07:58:00,25.2,7.4,29.78,NNW,343,4.0,11.0,46,0.00,,---,0.00,VWS V12.08,2013-02-17 12:58:00,
2013-02-17 08:18:00,25.5,7.7,29.78,WNW,286,6.3,15.4,46,0.00,,---,0.00,VWS V12.08,2013-02-17 13:18:00,
2013-02-17 08:38:00,26.2,8.4,29.78,West,281,12.8,17.0,46,0.00,,---,0.00,VWS V12.08,2013-02-17 13:38:00,
2013-02-17 08:58:00,27.1,8.7,29.78,WNW,298,7.6,17.4,45,0.00,,---,0.00,VWS V12.08,2013-02-17 13:58:00,
2013-02-17 09:18:00,27.5,9.0,29.78,WSW,242,5.8,15.4,45,0.00,,---,0.00,VWS V12.08,2013-02-17 14:18:00,
2013-02-17 09:38:00,27.9,9.3,29.78,NW,319,10.1,18.8,45,0.00,,---,0.00,VWS V12.08,2013-02-17 14:38:00,
2013-02-17 09:58:00,28.8,10.2,29.80,NW,307,8.1,17.0,45,0.00,,---,0.00,VWS V12.08,2013-02-17 14:58:00,
2013-02-17 10:18:00,28.9,10.3,29.80,West,275,5.4,19.2,45,0.00,,---,0.00,VWS V12.08,2013-02-17 15:18:00,
2013-02-17 10:38:00,29.5,10.8,29.80,WNW,303,5.8,21.9,45,0.00,,---,0.00,VWS V12.08,2013-02-17 15:38:00,
2013-02-17 10:58:00,30.0,11.3,29.80,WNW,296,13.2,19.2,45,0.00,,---,0.00,VWS V12.08,2013-02-17 15:58:00,
2013-02-17 11:18:00,29.5,10.8,29.80,NW,311,8.1,21.9,45,0.00,,---,0.00,VWS V12.08,2013-02-17 16:18:00,
2013-02-17 11:38:00,30.2,11.5,29.80,WNW,287,10.5,18.8,45,0.00,,---,0.00,VWS V12.08,2013-02-17 16:38:00,
2013-02-17 11:58:00,29.3,10.7,29.80,NNW,328,9.6,20.1,45,0.00,,---,0.00,VWS V12.08,2013-02-17 16:58:00,
2013-02-17 12:18:00,29.8,11.1,29.80,West,279,11.0,19.7,45,0.00,,---,0.00,VWS V12.08,2013-02-17 17:18:00,
2013-02-17 12:38:00,30.2,11.5,29.80,NNW,345,15.4,17.4,45,0.00,,---,0.00,VWS V12.08,2013-02-17 17:38:00,
2013-02-17 12:58:00,31.8,13.0,29.80,NNW,336,7.2,17.4,45,0.00,,---,0.00,VWS V12.08,2013-02-17 17:58:00,
2013-02-17 13:18:00,29.8,11.1,29.80,West,276,8.7,17.4,45,0.00,,---,0.00,VWS V12.08,2013-02-17 18:18:00,
2013-02-17 13:38:00,29.5,10.8,29.80,WSW,257,14.5,21.9,45,0.00,,---,0.00,VWS V12.08,2013-02-17 18:38:00,
2013-02-17 13:58:00,30.9,12.1,29.80,North,0,9.6,19.7,45,0.00,,---,0.00,VWS V12.08,2013-02-17 18:58:00,
2013-02-17 14:18:00,32.7,13.8,29.80,WNW,292,18.8,25.5,45,0.00,,---,0.00,VWS V12.08,2013-02-17 19:18:00,
2013-02-17 14:38:00,31.1,12.3,29.80,NW,304,11.0,22.8,45,0.00,,---,0.00,VWS V12.08,2013-02-17 19:38:00,
2013-02-17 14:58:00,32.0,13.1,29.83,SW,225,11.0,21.9,45,0.00,,---,0.00,VWS V12.08,2013-02-17 19:58:00,
2013-02-17 15:18:00,28.6,10.0,29.83,WNW,290,13.2,19.7,45,0.00,,---,0.00,VWS V12.08,2013-02-17 20:18:00,
2013-02-17 15:38:00,30.2,11.5,29.83,WNW,289,4.9,17.4,45,0.00,,---,0.00,VWS V12.08,2013-02-17 20:38:00,
2013-02-17 15:58:00,26.1,8.2,29.86,WSW,253,6.3,22.8,46,0.00,,---,0.00,VWS V12.08,2013-02-17 20:58:00,
2013-02-17 16:18:00,28.4,9.8,29.83,NW,305,12.3,20.6,45,0.00,,---,0.00,VWS V12.08,2013-02-17 21:18:00,
2013-02-17 16:38:00,27.9,9.3,29.86,North,353,8.7,17.4,45,0.00,,---,0.00,VWS V12.08,2013-02-17 21:38:00,
2013-02-17 16:58:00,28.0,9.5,29.86,NW,307,9.6,17.4,45,0.00,,---,0.00,VWS V12.08,2013-02-17 21:58:00,
2013-02-17 17:18:00,27.3,8.8,29.86,WNW,284,10.5,16.8,45,0.00,,---,0.00,VWS V12.08,2013-02-17 22:18:00,
2013-02-17 17:38:00,27.1,8.7,29.89,West,273,7.6,20.6,45,0.00,,---,0.00,VWS V12.08,2013-02-17 22:38:00,
2013-02-17 17:58:00,27.0,8.5,29.89,NNW,328,10.1,17.9,45,0.00,,---,0.00,VWS V12.08,2013-02-17 22:58:00,
2013-02-17 18:18:00,26.8,8.4,29.92,West,278,12.8,18.3,45,0.00,,---,0.00,VWS V12.08,2013-02-17 23:18:00,
2013-02-17 18:38:00,26.4,8.6,29.92,NW,326,8.3,17.4,46,0.00,,---,0.00,VWS V12.08,2013-02-17 23:38:00,
2013-02-17 18:58:00,26.1,8.2,29.92,West,279,8.1,27.1,46,0.00,,---,0.00,VWS V12.08,2013-02-17 23:58:00,
2013-02-17 19:18:00,25.5,7.7,29.95,West,277,6.7,24.2,46,0.00,,---,0.00,VWS V12.08,2013-02-18 00:18:00,
2013-02-17 19:38:00,25.2,7.4,29.95,NW,316,7.6,14.5,46,0.00,,---,0.00,VWS V12.08,2013-02-18 00:38:00,
2013-02-17 19:58:00,24.6,6.9,29.95,NW,307,4.9,22.4,46,0.00,,---,0.00,VWS V12.08,2013-02-18 00:58:00,
2013-02-17 20:18:00,24.3,6.6,29.98,NW,313,17.9,17.9,46,0.00,,---,0.00,VWS V12.08,2013-02-18 01:18:00,
2013-02-17 20:38:00,23.7,6.1,29.98,West,266,8.3,19.7,46,0.00,,---,0.00,VWS V12.08,2013-02-18 01:38:00,
2013-02-17 20:58:00,23.2,5.6,30.01,West,281,11.0,25.1,46,0.00,,---,0.00,VWS V12.08,2013-02-18 01:58:00,
2013-02-17 21:18:00,22.8,5.8,30.01,NW,305,15.0,19.2,47,0.00,,---,0.00,VWS V12.08,2013-02-18 02:18:00,
2013-02-17 21:38:00,22.5,5.4,30.01,North,353,7.6,15.9,47,0.00,,---,0.00,VWS V12.08,2013-02-18 02:38:00,
2013-02-17 21:58:00,22.1,5.1,30.04,NW,326,5.8,15.4,47,0.00,,---,0.00,VWS V12.08,2013-02-18 02:58:00,
2013-02-17 22:18:00,21.9,4.9,30.04,NW,306,3.6,14.5,47,0.00,,---,0.00,VWS V12.08,2013-02-18 03:18:00,
2013-02-17 22:38:00,21.7,4.8,30.04,West,267,6.3,19.7,47,0.00,,---,0.00,VWS V12.08,2013-02-18 03:38:00,
2013-02-17 22:58:00,21.4,4.4,30.07,West,269,5.4,15.0,47,0.00,,---,0.00,VWS V12.08,2013-02-18 03:58:00,
2013-02-17 23:18:00,21.2,4.3,30.07,WSW,241,5.4,22.8,47,0.00,,---,0.00,VWS V12.08,2013-02-18 04:18:00,
2013-02-17 23:38:00,20.8,3.9,30.07,WNW,300,11.0,13.2,47,0.00,,---,0.00,VWS V12.08,2013-02-18 04:38:00,
2013-02-17 23:59:00,20.8,3.9,30.10,SW,234,0.0,19.2,47,0.00,,---,0.00,VWS V12.08,2013-02-18 04:59:00,